Stations météo

réclame
Mon MeteoGroup
Castlederg, Grande-Bretagne (3904): Température de l'air & dewpoint: 15.06.2018 11:00:00 - 21.06.2018 11:00:00 (BST)Castlederg, Grande-Bretagne (3904): Température de l'air -20cm: 15.06.2018 11:00:00 - 21.06.2018 11:00:00 (BST)Castlederg, Grande-Bretagne (3904): Vitesse du vent & gusts: 15.06.2018 11:00:00 - 21.06.2018 11:00:00 (BST)Castlederg, Grande-Bretagne (3904): Direction du vent: 15.06.2018 11:00:00 - 21.06.2018 11:00:00 (BST)Castlederg, Grande-Bretagne (3904): reduced air pressure: 15.06.2018 11:00:00 - 21.06.2018 11:00:00 (BST)Castlederg, Grande-Bretagne (3904): visibility: 15.06.2018 11:00:00 - 21.06.2018 11:00:00 (BST)Castlederg, Grande-Bretagne (3904): Quantités de précipitations: 15.06.2018 11:00:00 - 21.06.2018 11:00:00 (BST)
Date & Time tt [°C] td [°C] tt -20cm [°C] ff [km/h] ff [knt] fx [km/h] fx [knt] dd ppp [hPa] vv [km] rr [mm]
21.06.2018 11:00:00 13,0 4,9 - 16 9 - - NNW 1031,0 50 0,0
21.06.2018 10:00:00 12,2 5,1 15,7 18 10 - - NW 1030,6 50 0,0
21.06.2018 09:00:00 11,9 5,6 - 16 9 - - NW 1029,8 30 0,0
21.06.2018 08:00:00 11,2 7,1 - 9 5 - - NW 1029,4 35 0,0
21.06.2018 07:00:00 9,7 8,0 - 5 3 - - WNW 1028,7 30 0,0
21.06.2018 06:00:00 7,7 6,4 - 5 3 - - WNW 1028,1 30 0,0
21.06.2018 05:00:00 7,4 6,4 - 5 3 - - W 1027,5 23 0,0
21.06.2018 04:00:00 6,7 5,4 - 8 4 - - WSW 1027,0 26 0,0
21.06.2018 03:00:00 7,3 6,3 - 8 4 - - W 1026,3 24 0,0
21.06.2018 02:00:00 6,2 5,3 - 8 4 - - WSW 1026,1 15 0,0
21.06.2018 01:00:00 6,4 4,9 - 5 3 - - WSW 1025,6 19 0,0
21.06.2018 00:00:00 8,0 6,3 - 9 5 - - W 1025,0 23 0,0
20.06.2018 23:00:00 7,7 5,9 - 13 7 - - WSW 1024,4 24 0,2
20.06.2018 22:00:00 9,3 6,7 - 18 10 - - W 1023,8 26 0,0
20.06.2018 21:00:00 10,4 7,3 - 21 11 - - W 1022,9 40 0,8
20.06.2018 20:00:00 9,8 7,8 - 16 9 - - W 1022,8 7 0,6
20.06.2018 19:00:00 12,5 8,0 - 16 9 - - W 1022,6 35 0,0
20.06.2018 18:00:00 12,6 6,9 - 13 7 - - W 1022,3 40 0,0
20.06.2018 17:00:00 13,3 5,7 - 21 11 - - W 1021,9 40 0,0
20.06.2018 16:00:00 13,0 6,1 - 16 9 - - W 1021,9 10 0,0
20.06.2018 15:00:00 13,5 5,5 - 21 11 - - WNW 1021,5 40 0,0
20.06.2018 14:00:00 13,8 6,1 - 18 10 - - W 1021,1 40 0,0
20.06.2018 13:00:00 13,9 7,1 - 15 8 - - WNW 1020,9 40 0,0
20.06.2018 12:00:00 13,6 6,4 - 15 8 - - NW 1020,2 40 0,0
20.06.2018 11:00:00 12,0 7,5 - 13 7 - - NW 1019,9 35 0,0
20.06.2018 10:00:00 11,9 7,7 16,2 13 7 - - NW 1019,1 45 0,0
20.06.2018 09:00:00 11,7 9,5 - 15 8 - - NW 1018,0 40 0,0
20.06.2018 08:00:00 10,7 8,1 - 15 8 - - NW 1016,8 35 0,0
20.06.2018 07:00:00 10,0 8,7 - 11 6 - - NW 1015,7 8 0,0
20.06.2018 06:00:00 10,0 8,9 - 13 7 - - NW 1014,1 50 0,2
20.06.2018 05:00:00 10,5 9,4 - 15 8 - - NNW 1012,3 28 1,8
20.06.2018 04:00:00 14,4 13,9 - 24 13 46 25 WSW 1010,1 11 1,8
20.06.2018 03:00:00 14,9 14,4 - 13 7 - - WSW 1009,7 3,5 1,0
20.06.2018 02:00:00 15,0 14,6 - 18 10 - - SSW 1010,0 4,5 0,2
20.06.2018 01:00:00 15,2 14,6 - 21 11 - - SW 1010,1 5 1,0
20.06.2018 00:00:00 15,2 14,7 - 18 10 - - SW 1010,4 8 1,4
19.06.2018 23:00:00 15,4 14,7 - 21 11 - - SSW 1010,5 11 1,8
19.06.2018 22:00:00 15,5 15,2 - 13 7 - - SSW 1010,9 10 1,6
19.06.2018 21:00:00 14,4 14,1 - 4 2 - - SE 1011,1 7 2,8
19.06.2018 20:00:00 13,4 13,0 - 8 4 - - SE 1011,7 8 2,0
19.06.2018 19:00:00 12,7 12,2 - 9 5 - - ESE 1012,5 21 1,4
19.06.2018 18:00:00 12,1 11,4 - 9 5 - - ESE 1013,6 5 1,8
19.06.2018 17:00:00 11,9 11,1 - 11 6 - - ESE 1015,1 3,8 1,6
19.06.2018 16:00:00 11,7 10,6 - 9 5 - - E 1016,3 4,2 2,4
19.06.2018 15:00:00 11,8 9,7 - 11 6 - - SE 1017,0 6 1,6
19.06.2018 14:00:00 12,8 9,0 - 11 6 - - SSE 1017,4 14 0,0
19.06.2018 13:00:00 13,1 7,3 - 13 7 - - SSE 1018,4 28 0,0
19.06.2018 12:00:00 12,3 8,2 - 9 5 - - S 1019,1 30 0,0
19.06.2018 11:00:00 11,5 8,9 - 11 6 - - SSW 1019,3 18 0,2
19.06.2018 10:00:00 11,5 8,9 16,2 8 4 - - SSW 1019,5 23 0,0
19.06.2018 09:00:00 11,0 8,2 - 9 5 - - SSW 1019,6 18 0,0
19.06.2018 08:00:00 11,1 7,8 - 8 4 - - SW 1019,5 21 0,0
19.06.2018 07:00:00 9,8 7,3 - 8 4 - - WSW 1019,2 23 0,0
19.06.2018 06:00:00 9,2 7,2 - 9 5 - - SW 1019,1 21 0,0
19.06.2018 05:00:00 9,2 7,1 - 5 3 - - WSW 1019,1 22 0,0
19.06.2018 04:00:00 9,1 7,0 - 9 5 - - WSW 1018,9 19 0,0
19.06.2018 03:00:00 8,0 6,6 - 4 2 - - SW 1018,7 24 0,0
19.06.2018 02:00:00 8,3 5,8 - 2 1 - - SW 1018,9 24 0,0
19.06.2018 01:00:00 9,3 6,6 - 5 3 - - W 1018,9 20 0,0
19.06.2018 00:00:00 9,0 5,9 - 8 4 - - WSW 1018,3 19 0,0
18.06.2018 23:00:00 10,3 5,6 - 11 6 - - WSW 1018,1 24 0,0
18.06.2018 22:00:00 11,5 7,3 - 11 6 - - W 1017,1 19 0,0
18.06.2018 21:00:00 12,0 7,0 - 21 11 - - WSW 1016,2 19 0,0
18.06.2018 20:00:00 14,3 7,5 - 16 9 - - W 1015,4 28 0,0
18.06.2018 19:00:00 14,3 7,8 - 26 14 - - WSW 1014,6 20 0,0
18.06.2018 18:00:00 15,9 6,3 - 24 13 - - W 1014,0 30 0,0
18.06.2018 17:00:00 13,8 9,4 - 28 15 - - WSW 1013,8 18 0,0
18.06.2018 16:00:00 13,7 10,7 - 24 13 - - WSW 1013,5 29 0,0
18.06.2018 15:00:00 13,8 10,0 - 18 10 - - WSW 1013,9 10 0,0
18.06.2018 14:00:00 15,1 9,7 - 26 14 - - WSW 1013,2 30 0,0
18.06.2018 13:00:00 15,9 9,7 - 26 14 - - WSW 1013,3 35 0,0
18.06.2018 12:00:00 17,4 11,2 - 24 13 - - SW 1012,9 18 0,0
18.06.2018 11:00:00 15,9 9,5 - 26 14 - - WSW 1013,3 21 0,0
18.06.2018 10:00:00 14,0 10,2 16,5 24 13 - - WSW 1013,3 25 0,0
18.06.2018 09:00:00 12,6 9,7 - 22 12 - - WSW 1013,1 16 0,0
18.06.2018 08:00:00 12,0 9,1 - 21 11 - - WSW 1012,9 24 0,0
18.06.2018 07:00:00 11,7 9,0 - 18 10 - - SW 1012,7 15 0,0
18.06.2018 06:00:00 11,4 9,2 - 13 7 - - WSW 1012,7 16 0,0
18.06.2018 05:00:00 11,1 9,0 - 15 8 - - WSW 1012,5 14 0,0
18.06.2018 04:00:00 10,9 8,7 - 18 10 - - WSW 1012,2 16 0,0
18.06.2018 03:00:00 11,1 8,4 - 16 9 - - SW 1011,9 16 0,0
18.06.2018 02:00:00 11,5 8,9 - 21 11 - - WSW 1012,1 17 0,0
18.06.2018 01:00:00 11,3 9,3 - 22 12 - - WSW 1011,8 21 0,0
18.06.2018 00:00:00 11,6 9,0 - 21 11 - - WSW 1011,7 30 0,0
17.06.2018 23:00:00 12,1 10,1 - 24 13 - - WSW 1011,1 22 0,0
17.06.2018 22:00:00 12,2 10,1 - 31 17 50 27 WSW 1010,5 26 0,0
17.06.2018 21:00:00 12,6 10,9 - 26 14 - - WSW 1009,8 13 0,0
17.06.2018 20:00:00 13,5 12,0 - 24 13 50 27 WSW 1009,3 12 0,0
17.06.2018 19:00:00 14,4 12,2 - 29 16 46 25 WSW 1008,7 13 0,0
17.06.2018 18:00:00 16,3 12,5 - 29 16 46 25 WSW 1008,0 26 0,0
17.06.2018 17:00:00 17,2 13,3 - 31 17 52 28 WSW 1007,9 25 0,0
17.06.2018 16:00:00 15,6 12,6 - 28 15 52 28 WSW 1007,5 20 0,0
17.06.2018 15:00:00 17,4 14,6 - 21 11 - - SSW 1006,7 3,3 0,0
17.06.2018 14:00:00 16,4 14,0 - 24 13 - - SSW 1006,8 20 0,0
17.06.2018 13:00:00 14,5 12,0 - 22 12 - - S 1006,8 21 0,0
17.06.2018 12:00:00 13,2 11,4 - 24 13 - - SSE 1007,0 45 0,2
17.06.2018 11:00:00 12,5 10,6 - 24 13 - - SSE 1007,5 25 0,0
17.06.2018 10:00:00 11,9 10,0 16,5 21 11 - - SSE 1008,3 25 0,0
17.06.2018 09:00:00 11,8 9,7 - 15 8 - - SSE 1008,5 30 0,0
17.06.2018 08:00:00 11,5 9,7 - 13 7 - - S 1008,8 27 0,0
17.06.2018 07:00:00 11,3 9,6 - 13 7 - - SSW 1009,3 28 0,0
17.06.2018 06:00:00 10,7 9,6 - 11 6 - - SW 1009,5 23 0,0
17.06.2018 05:00:00 10,7 9,5 - 15 8 - - SW 1009,5 28 0,0
17.06.2018 04:00:00 10,8 9,9 - 8 4 - - WSW 1009,5 22 0,0
17.06.2018 03:00:00 10,9 10,1 - 13 7 - - WSW 1009,5 21 0,4
17.06.2018 02:00:00 11,0 10,2 - 9 5 - - WSW 1009,6 12 0,0
17.06.2018 01:00:00 11,1 10,1 - 15 8 - - WSW 1009,8 28 0,2
17.06.2018 00:00:00 11,1 10,0 - 13 7 - - WSW 1009,8 24 0,2
16.06.2018 23:00:00 11,7 9,2 - 15 8 - - WSW 1009,7 35 0,0
16.06.2018 22:00:00 12,0 9,8 - 16 9 - - WSW 1009,5 12 0,0
16.06.2018 21:00:00 12,2 8,9 - 13 7 - - WSW 1009,0 30 0,0
16.06.2018 20:00:00 13,2 8,2 - 22 12 - - WSW 1008,8 50 0,0
16.06.2018 19:00:00 14,2 8,2 - 21 11 - - WSW 1008,4 27 0,0
16.06.2018 18:00:00 14,2 7,1 - 24 13 46 25 WSW 1008,1 30 0,0
16.06.2018 17:00:00 14,9 6,0 - 21 11 - - W 1007,8 50 0,0
16.06.2018 16:00:00 16,4 7,9 - 26 14 - - WSW 1007,7 30 0,0
16.06.2018 15:00:00 13,8 7,4 - 24 13 - - WSW 1007,3 35 0,0
16.06.2018 14:00:00 14,6 8,2 - 24 13 - - WSW 1006,6 30 0,0
16.06.2018 13:00:00 14,4 8,7 - 26 14 46 25 W 1006,3 30 0,0
16.06.2018 12:00:00 15,0 10,8 - 26 14 - - WSW 1005,7 40 0,2
16.06.2018 11:00:00 11,5 8,7 - 22 12 - - WSW 1005,6 23 0,2
16.06.2018 10:00:00 12,1 10,9 16,0 18 10 - - SSW 1005,3 7 0,2
16.06.2018 09:00:00 11,9 9,1 - 26 14 - - SW 1005,1 27 0,0
16.06.2018 08:00:00 11,0 10,2 - 11 6 - - SSW 1005,1 35 0,0
16.06.2018 07:00:00 10,6 9,8 - 16 9 - - WSW 1004,9 4,3 1,0
16.06.2018 06:00:00 10,8 10,1 - 15 8 - - SSE 1004,8 6 0,4
16.06.2018 05:00:00 10,7 9,8 - 18 10 - - SSE 1005,1 10 1,0
16.06.2018 04:00:00 10,5 9,6 - 16 9 - - SSE 1005,8 8 1,8
16.06.2018 03:00:00 10,7 9,5 - 18 10 - - SSE 1006,9 7 1,8
16.06.2018 02:00:00 10,6 9,1 - 13 7 - - S 1007,8 10 0,8
16.06.2018 01:00:00 10,9 8,0 - 9 5 - - ESE 1008,4 45 0,0
16.06.2018 00:00:00 11,1 7,6 - 11 6 - - S 1009,1 40 0,0
15.06.2018 23:00:00 11,5 9,7 - 11 6 - - SSE 1009,7 50 0,0
15.06.2018 22:00:00 11,6 9,5 - 4 2 - - SE 1010,3 45 0,4
15.06.2018 21:00:00 12,7 9,4 - 5 3 - - S 1010,7 45 0,0
15.06.2018 20:00:00 13,7 9,5 - 13 7 - - SSW 1010,8 50 0,0
15.06.2018 19:00:00 14,5 9,8 - 15 8 - - WSW 1011,2 50 0,0
15.06.2018 18:00:00 12,8 10,6 - 18 10 - - SSW 1011,6 50 0,6
15.06.2018 17:00:00 12,7 9,7 - 18 10 - - WSW 1012,1 7 0,0
15.06.2018 16:00:00 13,5 9,8 - 16 9 - - SW 1012,3 40 0,0
15.06.2018 15:00:00 14,2 10,3 - 24 13 - - WSW 1012,6 30 0,0
15.06.2018 14:00:00 13,1 10,9 - 22 12 - - WSW 1012,8 35 0,4
15.06.2018 13:00:00 10,5 9,3 - 18 10 55 30 WSW 1012,9 22 0,8
15.06.2018 12:00:00 13,4 8,7 - 24 13 - - WSW 1012,4 30 0,0
15.06.2018 11:00:00 12,2 9,3 - 22 12 - - SW 1012,5 17 0,0

tt = Température de l'air
td = dewpoint
tt -20cm = Température de l'air -20cm
ff = Vitesse du vent
fx = gusts
dd = Direction du vent
ppp = reduced air pressure
vv = visibility
rr = Quantités de précipitations

stations d'obs. à proximité